Location: ???????
(55.4362°N, 38.1183°E)
Time: 17:32:27
(UTC+00:00)

Cosmos 2219 Rocket - Pass Details

Date: 23 October 2021
Orbit: 826 x 848 km, 71.0° (Epoch: 04 December)

Event Time Altitude Azimuth Distance (km) Brightness Sun altitude
Rises 03:33:47 0° 322° (NW) 3,402 4.9 -6.3°
Reaches altitude 10° 03:36:30 10° 312° (NW) 2,467 4.1 -6.0°
Maximum altitude 03:41:16 29° 254° (WSW) 1,504 3.1 -5.3°
Drops below altitude 10° 03:46:03 10° 196° (SSW) 2,463 4.6 -4.6°
Sets 03:48:46 0° 186° (S) 3,396 5.5 -4.3°
